Regional Weather Roundup
Issued by NWS Charleston, WV

Home | Current Version | Previous Version | Graphics & Text | Print | Product List | Glossary On
Versions: 1 2 3 4 5 6 7 8 9 10 11 12 13 14 15 16 17 18 19 20 21 22 23 24 25 26 27 28 29 30 31 32 33 34 35 36 37 38 39 40 41 42 43 44 45 46 47 48 49 50
585
ASUS41 KRLX 171110
RWRRLX
West Virginia Regional Weather Roundup
National Weather Service Charleston WV
700 AM EDT THU AUG 17 2017

Note: "fair" indicates few or no clouds below 12,000 feet with no
significant weather and/or obstructions to visibility.

WVZ003-171200-
Northern Panhandle of West Virginia

CITY           SKY/WX    TMP DP  RH WIND       PRES   REMARKS
WHEELING       CLEAR     68  63  84 SE5       30.02R
$$

WVZ009-171200-
Northwest West Virginia

CITY           SKY/WX    TMP DP  RH WIND       PRES   REMARKS
PARKERSBURG    CLOUDY    68  67  96 CALM      30.04R FOG
$$

WVZ006-171200-
Western West Virginia

CITY           SKY/WX    TMP DP  RH WIND       PRES   REMARKS
HUNTINGTON     CLEAR     71  69  93 CALM      30.01R
$$

WVZ015-171200-
West Central West Virginia

CITY           SKY/WX    TMP DP  RH WIND       PRES   REMARKS
CHARLESTON     PTCLDY    69  67  93 CALM      30.03R FOG
$$

WVZ022-031-171200-
North Central West Virginia

CITY           SKY/WX    TMP DP  RH WIND       PRES   REMARKS
CLARKSBURG     PTCLDY    65  63  93 CALM      30.04R FOG
MORGANTOWN     CLEAR     67  63  87 CALM      30.04S
$$

WVZ025-035-042-045-171200-
Southern West Virginia

CITY           SKY/WX    TMP DP  RH WIND       PRES   REMARKS
BECKLEY        MOCLDY    68  65  90 CALM      30.12R
LOGAN          FOG       70  70 100 CALM      30.07R VSB 1/4
BLUEFIELD      MOCLDY    67  65  93 W6        30.15R
LEWISBURG      MOCLDY    61  61  99 CALM      30.12R FOG
$$

WVZ047-171200-
Northern Mountains of West Virginia

CITY           SKY/WX    TMP DP  RH WIND       PRES   REMARKS
ELKINS         MOCLDY    60  58  92 CALM      30.11R FOG
$$

WVZ052-171200-
Eastern Panhandle of West Virginia

CITY           SKY/WX    TMP DP  RH WIND       PRES   REMARKS
MARTINSBURG    CLEAR     66  64  94 CALM      30.03  FOG
PETERSBURG     FOG       67  67  99 CALM      30.07R VSB<1/4
$$




USA.gov is the U.S. government's official web portal to all federal, state and local government web resources and services.